Flag for Germany Weather past 2 weeks in Emmendingen, Baden-Württemberg, Germany

Now
52 °F

Scattered clouds.


Feels Like: 47 °F
Forecast: 37 / 49 °F
Wind: 14 mph from Southwest

Location: Lahr - CAN-AFB

Current Time: Dec 19, 2014 at 10:10:04 AM

Latest Report: Dec 19, 2014 at 9:20 AM


Visibility: N/A

Pressure: 30.15 "Hg

Humidity: 77%

Dew point: 45 °F

Location of EmmendingenLocation

Historic Weather in Emmendingen — Graph

°F

Emmendingen temperature yesterday

Maximum temperature yesterday: 55 °F (at 7:20 PM)
Minimum temperature yesterday: 50 °F (at 7:20 AM)
Average temperature yesterday: 53 °F

Past Weeks' High & Low Weather Summary

 TemperatureHumidityPressure
High55 °F (Dec 18, 7:20 PM)100% (Dec 4, 8:20 AM)30.45 "Hg (Dec 4, 8:20 AM)
Low34 °F (Dec 10, 7:50 AM)54% (Dec 15, 4:20 PM)29.77 "Hg (Dec 12, 4:50 PM)
Average44 °F84%30.06 "Hg
* Reported Dec 4 8:20 AM — Dec 19 8:50 AM, Emmendingen, Weather by CustomWeather, © 2014

Note: Actual official high and low records may vary slightly from our data, if they occured in-between our weather recording intervals... More about our weather records

Advertising

Emmendingen weather history for previous 24 hours

 ConditionsComfort  
Time TempWeatherWind HumidityBarometerVisibility
8:50 AM
Dec 19
52 °FScattered clouds.15 mph82%30.15 "HgN/A
8:20 AM52 °FScattered clouds.16 mph82%30.12 "HgN/A
7:50 AM52 °FPassing clouds.13 mph82%30.15 "HgN/A
9:20 PM
Dec 18
54 °FPassing clouds.9 mph82%30.15 "HgN/A
8:50 PM55 °FPassing clouds.10 mph82%30.15 "HgN/A
8:20 PM55 °FPassing clouds.7 mph82%30.12 "HgN/A
7:50 PM55 °FPassing clouds.12 mph82%30.12 "HgN/A
7:20 PM55 °FPassing clouds.10 mph82%30.12 "HgN/A
6:50 PM54 °FPassing clouds.10 mph88%30.12 "HgN/A
6:20 PM54 °FPassing clouds.10 mph88%30.12 "HgN/A
5:50 PM54 °FPassing clouds.13 mph88%30.12 "HgN/A
5:20 PM54 °FPassing clouds.14 mph88%30.09 "HgN/A
4:50 PM54 °FPassing clouds.13 mph88%30.09 "HgN/A
4:20 PM54 °FPartly sunny.13 mph88%30.09 "HgN/A
3:50 PM54 °FPartly sunny.14 mph88%30.07 "HgN/A
3:20 PM54 °FPartly sunny.10 mph88%30.07 "HgN/A
2:50 PM54 °FPartly sunny.12 mph88%30.07 "HgN/A
2:20 PM54 °FPartly sunny.10 mph88%30.07 "HgN/A
1:50 PM52 °FPartly sunny.13 mph94%30.07 "HgN/A
1:20 PM52 °FPartly sunny.13 mph94%30.07 "HgN/A
12:50 PM52 °FPartly sunny.12 mph94%30.07 "HgN/A
12:20 PM52 °FDrizzle. Partly sunny.12 mph88%30.04 "HgN/A
11:50 AM52 °FDrizzle. Partly sunny.10 mph88%30.07 "HgN/A
11:20 AM52 °FPartly sunny.9 mph88%30.07 "HgN/A
10:50 AM52 °FPartly sunny.12 mph88%30.04 "HgN/A
10:20 AM52 °FPartly sunny.9 mph88%30.04 "HgN/A
Weather by CustomWeather, © 2014

See weather overviewHow to use our weather pages